Weather History for Kahului, HI

Change the Weather History Date:

Thursday, January 17, 2013

  Actual Average Record
Temperature  
Mean Temperature 69 °F 72 °F  
Max Temperature 78 °F 81 °F 88 °F (1953)
Min Temperature 59 °F 63 °F 53 °F (1969)
Degree Days  
Heating Degree Days 0 0  
Month to date heating degree days 0 0  
Since 1 July heating degree days 0 0  
Cooling Degree Days 4 7  
Month to date cooling degree days 131 119  
Year to date cooling degree days 131 119  
Growing Degree Days 18 (Base 50)    
Moisture  
Dew Point 61 °F    
Average Humidity 75    
Maximum Humidity 90    
Minimum Humidity 60    
Precipitation  
Precipitation 0.00 in 0.09 in 2.04 in (1959)
Month to date precipitation 0.90 1.64  
Year to date precipitation 0.90 1.64  
Snow  
Snow 0.00 in - - ()
Month to date snowfall 0.0  
Since 1 July snowfall 0.0  
Snow Depth -    
Sea Level Pressure  
Sea Level Pressure 29.90 in    
Wind  
Wind Speed 5 mph (ENE)    
Max Wind Speed 13 mph    
Max Gust Speed 17 mph    
Visibility 10 miles    
Events      
T = Trace of Precipitation, MM = Missing Value Source: NWS Daily Summary

Daily Weather History Graph

Daily Weather History Graph

Search for Another Location

Airport:

Trip Planner

Search our weather history database for the weather conditions in past years. The results will help you decide how hot, cold, wet, or windy it might be!

Date:

Astronomy

Jan. 17, 2013 Rise Set
Actual Time 7:05 AM HST 6:07 PM HST
Civil Twilight 6:41 AM HST 6:30 PM HST
Nautical Twilight 6:14 AM HST 6:57 PM HST
Astronomical Twilight 5:47 AM HST 7:24 PM HST
Moon 11:14 AM HST No Moon Set
Length of Visible Light 11h 49m
Length of Day
11h 01m
Waxing Crescent, 39% of the Moon is Illuminated
Jan 17
Waxing Crescent
Jan 18
First Quarter
Jan 26
Full
Feb 3
Last Quarter
Feb 9
New

Hourly Weather History & Observations

Time (HST) Temp. Dew Point Humidity Pressure Visibility Wind Dir Wind Speed Gust Speed Precip Events Conditions
12:54 AM 63.0 °F 59.0 °F 87% 29.91 in 10.0 mi South 3.5 mph - N/A   Partly Cloudy
2:54 AM 60.1 °F 57.0 °F 90% 29.89 in 10.0 mi SSE 4.6 mph - N/A   Clear
3:54 AM 60.1 °F 57.0 °F 90% 29.88 in 10.0 mi South 3.5 mph - N/A   Clear
4:54 AM 62.1 °F 57.9 °F 86% 29.88 in 10.0 mi South 5.8 mph - N/A   Partly Cloudy
5:54 AM 60.1 °F 57.0 °F 90% 29.89 in 10.0 mi SE 6.9 mph - N/A   Clear
6:54 AM 61.0 °F 57.0 °F 87% 29.90 in 10.0 mi SE 5.8 mph - N/A   Scattered Clouds
7:54 AM 63.0 °F 59.0 °F 87% 29.92 in 10.0 mi Calm Calm - N/A   Clear
8:54 AM 70.0 °F 63.0 °F 78% 29.94 in 10.0 mi South 3.5 mph - N/A   Partly Cloudy
9:54 AM 73.9 °F 62.1 °F 66% 29.94 in 10.0 mi NE 3.5 mph - N/A   Partly Cloudy
10:54 AM 75.9 °F 62.1 °F 62% 29.93 in 10.0 mi North 8.1 mph - N/A   Scattered Clouds
11:54 AM 77.0 °F 62.1 °F 60% 29.91 in 10.0 mi NNW 8.1 mph - N/A   Scattered Clouds
12:54 PM 77.0 °F 62.1 °F 60% 29.88 in 10.0 mi North 6.9 mph - N/A   Scattered Clouds
1:54 PM 75.9 °F 62.1 °F 62% 29.86 in 10.0 mi North 10.4 mph - N/A   Scattered Clouds
2:54 PM 75.9 °F 62.1 °F 62% 29.85 in 10.0 mi North 10.4 mph - N/A   Scattered Clouds
3:54 PM 73.0 °F 63.0 °F 71% 29.86 in 10.0 mi NNW 9.2 mph - N/A   Scattered Clouds
4:54 PM 73.0 °F 62.1 °F 68% 29.88 in 10.0 mi NNE 4.6 mph - N/A   Mostly Cloudy
5:54 PM 72.0 °F 61.0 °F 68% 29.90 in 10.0 mi NNW 5.8 mph - N/A   Scattered Clouds
6:54 PM 72.0 °F 61.0 °F 68% 29.92 in 10.0 mi Calm Calm - N/A   Mostly Cloudy
7:54 PM 71.1 °F 62.1 °F 73% 29.93 in 10.0 mi SE 3.5 mph - N/A   Mostly Cloudy
8:54 PM 69.1 °F 62.1 °F 78% 29.93 in 10.0 mi Calm Calm - N/A   Scattered Clouds
9:54 PM 68.0 °F 62.1 °F 81% 29.93 in 10.0 mi NW 6.9 mph - N/A   Mostly Cloudy
10:54 PM 64.9 °F 61.0 °F 87% 29.92 in 10.0 mi Calm Calm - N/A   Scattered Clouds
11:54 PM 64.9 °F 61.0 °F 87% 29.92 in 10.0 mi SE 4.6 mph - N/A   Scattered Clouds